Black River Falls, WI

7:09 AM CDT on June 26, 2017 (GMT -0500)
Black River Falls Area

Weather History for KBCK - January, 2013

Change the Weather History Date:

Friday, January 18, 2013

  Actual Average (KCMY) Record (KCMY)
Temperature  
Mean Temperature 24 °F -  
Max Temperature 44 °F 23 °F 49 °F (1973)
Min Temperature 5 °F 4 °F -39 °F (1967)
Degree Days  
Heating Degree Days 40    
Moisture  
Dew Point 23 °F    
Average Humidity 75    
Maximum Humidity 93    
Minimum Humidity 57    
Precipitation  
Precipitation 0.00 in - - ()
Sea Level Pressure  
Sea Level Pressure 29.95 in    
Wind  
Wind Speed 4 mph (SSW)    
Max Wind Speed 20 mph    
Max Gust Speed 25 mph    
Visibility 10 miles    
Events Snow    
Averages and records for this station are not official NWS values.
T = Trace of Precipitation, MM = Missing Value Source: NWS Daily Summary

Daily Weather History Graph

Daily Weather History Graph

Search for Another Location

Airport or City:

Trip Planner

Search our weather history database for the weather conditions in past years. The results will help you decide how hot, cold, wet, or windy it might be!

Date:

Astronomy

Jan. 18, 2013 Rise Set
Actual Time 7:33 AM CST 4:54 PM CST
Civil Twilight 7:01 AM CST 5:26 PM CST
Nautical Twilight 6:26 AM CST 6:02 PM CST
Astronomical Twilight 5:51 AM CST 6:36 PM CST
Moon 10:53 AM CST (1/18) 12:02 AM CST (1/18)
Length of Visible Light 10h 24m
Length of Day
9h 20m
Waxing Crescent, 47% of the Moon is Illuminated
Jan 18
Waxing Crescent
Jan 18
First Quarter
Jan 26
Full
Feb 3
Last Quarter
Feb 10
New

Hourly Weather History & Observations

Time (CST) Temp. Windchill Dew Point Humidity Pressure Visibility Wind Dir Wind Speed Gust Speed Precip Events Conditions
12:15 AM 5.0 °F - 3.2 °F 92% 30.34 in 10.0 mi Calm Calm - N/A   Scattered Clouds
12:35 AM 6.8 °F - 3.2 °F 85% 30.34 in 10.0 mi Calm Calm - N/A   Scattered Clouds
12:55 AM 8.6 °F - 5.0 °F 85% 30.34 in 10.0 mi Calm Calm - N/A   Scattered Clouds
1:15 AM 8.6 °F - 5.0 °F 85% 30.34 in 10.0 mi Calm Calm - N/A   Mostly Cloudy
1:35 AM 10.4 °F - 6.8 °F 85% 30.34 in 10.0 mi Calm Calm - N/A   Overcast
2:15 AM 12.2 °F - 8.6 °F 85% 30.32 in 10.0 mi Calm Calm - N/A   Overcast
2:35 AM 14.0 °F - 10.4 °F 86% 30.32 in 10.0 mi Calm Calm - N/A   Overcast
2:55 AM 14.0 °F - 10.4 °F 86% 30.31 in 10.0 mi Calm Calm - N/A   Overcast
3:15 AM 14.0 °F - 8.6 °F 79% 30.31 in 10.0 mi Calm Calm - N/A   Overcast
3:35 AM 14.0 °F 8.2 °F 8.6 °F 79% 30.30 in 10.0 mi SE 3.5 mph - N/A   Overcast
3:55 AM 14.0 °F 6.5 °F 10.4 °F 86% 30.27 in 5.0 mi ESE 4.6 mph - N/A Snow Light Snow
4:15 AM 14.0 °F 6.5 °F 10.4 °F 86% 30.25 in 2.5 mi ESE 4.6 mph - N/A Snow Light Snow
4:35 AM 15.8 °F 10.2 °F 10.4 °F 79% 30.24 in 1.8 mi ESE 3.5 mph - N/A Snow Light Snow
5:15 AM 15.8 °F 8.6 °F 12.2 °F 86% 30.21 in 2.5 mi SE 4.6 mph - N/A Snow Light Snow
5:35 AM 15.8 °F 8.6 °F 12.2 °F 86% 30.20 in 5.0 mi SE 4.6 mph - N/A Snow Light Snow
6:15 AM 17.6 °F 9.3 °F 12.2 °F 79% 30.16 in 10.0 mi SE 5.8 mph - N/A   Overcast
6:35 AM 17.6 °F 8.2 °F 14.0 °F 86% 30.15 in 10.0 mi SE 6.9 mph - N/A   Overcast
6:55 AM 17.6 °F 8.2 °F 14.0 °F 86% 30.13 in 10.0 mi SE 6.9 mph - N/A   Overcast
7:15 AM 17.6 °F 12.3 °F 14.0 °F 86% 30.10 in 10.0 mi SE 3.5 mph - N/A   Overcast
7:35 AM 19.4 °F 12.8 °F 14.0 °F 80% 30.08 in 10.0 mi SE 4.6 mph - N/A   Overcast
8:15 AM 19.4 °F 14.3 °F 15.8 °F 86% 30.04 in 10.0 mi SE 3.5 mph - N/A   Overcast
8:35 AM 21.2 °F 16.4 °F 17.6 °F 86% 30.02 in 10.0 mi SE 3.5 mph - N/A   Mostly Cloudy
8:55 AM 23.0 °F 17.0 °F 17.6 °F 80% 30.00 in 10.0 mi SSE 4.6 mph - N/A   Clear
9:15 AM 26.6 °F 20.0 °F 19.4 °F 74% 29.98 in 10.0 mi SSE 5.8 mph - N/A   Clear
9:35 AM 28.4 °F 23.3 °F 21.2 °F 74% 29.98 in 10.0 mi SSE 4.6 mph - N/A   Clear
9:55 AM 30.2 °F 26.7 °F 21.2 °F 69% 29.98 in 10.0 mi South 3.5 mph - N/A   Clear
10:15 AM 32.0 °F 27.5 °F 23.0 °F 69% 29.96 in 10.0 mi SSW 4.6 mph - N/A   Clear
10:35 AM 32.0 °F 24.8 °F 23.0 °F 69% 29.93 in 10.0 mi South 8.1 mph - N/A   Clear
10:55 AM 35.6 °F 28.0 °F 24.8 °F 65% 29.91 in 10.0 mi South 10.4 mph 16.1 mph N/A   Clear
11:15 AM 35.6 °F 27.1 °F 26.6 °F 70% 29.89 in 10.0 mi SSW 12.7 mph 23.0 mph N/A   Clear
11:35 AM 35.6 °F 28.0 °F 26.6 °F 70% 29.86 in 10.0 mi SW 10.4 mph 23.0 mph N/A   Clear
11:55 AM 39.2 °F 30.5 °F 26.6 °F 61% 29.85 in 10.0 mi SSW 16.1 mph 23.0 mph N/A   Clear
12:15 PM 41.0 °F 32.8 °F 28.4 °F 61% 29.84 in 10.0 mi SSW 16.1 mph 23.0 mph N/A   Clear
12:35 PM 41.0 °F 33.9 °F 28.4 °F 61% 29.82 in 10.0 mi SW 12.7 mph 24.2 mph N/A   Clear
12:55 PM 41.0 °F 32.8 °F 28.4 °F 61% 29.80 in 10.0 mi SW 16.1 mph 25.3 mph N/A   Clear
1:15 PM 42.8 °F 36.6 °F 28.4 °F 57% 29.78 in 10.0 mi SSW 11.5 mph 20.7 mph N/A   Clear
1:35 PM 42.8 °F 34.3 °F 28.4 °F 57% 29.78 in 10.0 mi SW 19.6 mph 25.3 mph N/A   Clear
1:55 PM 42.8 °F 35.4 °F 28.4 °F 57% 29.76 in 10.0 mi WSW 15.0 mph 25.3 mph N/A   Clear
2:15 PM 42.8 °F 36.2 °F 30.2 °F 61% 29.76 in 10.0 mi SW 12.7 mph 25.3 mph N/A   Clear
2:35 PM 44.6 °F 38.1 °F 30.2 °F 57% 29.75 in 10.0 mi SW 13.8 mph 18.4 mph N/A   Clear
2:55 PM 44.6 °F 39.7 °F 30.2 °F 57% 29.76 in 10.0 mi SW 9.2 mph 16.1 mph N/A   Clear
3:15 PM 44.6 °F 39.2 °F 30.2 °F 57% 29.75 in 10.0 mi SW 10.4 mph 23.0 mph N/A   Clear
3:35 PM 44.6 °F 40.2 °F 30.2 °F 57% 29.74 in 10.0 mi SW 8.1 mph - N/A   Clear
3:55 PM 44.6 °F 41.4 °F 30.2 °F 57% 29.75 in 10.0 mi SW 5.8 mph - N/A   Clear
4:15 PM 44.6 °F 42.2 °F 30.2 °F 57% 29.74 in 10.0 mi SW 4.6 mph - N/A   Clear
4:35 PM 42.8 °F 39.3 °F 30.2 °F 61% 29.74 in 10.0 mi SW 5.8 mph - N/A   Clear
5:15 PM 42.8 °F 39.3 °F 32.0 °F 66% 29.74 in 10.0 mi SSW 5.8 mph - N/A   Clear
5:35 PM 41.0 °F 39.0 °F 32.0 °F 70% 29.75 in 10.0 mi SW 3.5 mph - N/A   Clear
5:55 PM 41.0 °F 38.0 °F 32.0 °F 70% 29.75 in 10.0 mi SW 4.6 mph - N/A   Clear
6:15 PM 41.0 °F 39.0 °F 32.0 °F 70% 29.75 in 10.0 mi SW 3.5 mph - N/A   Clear
6:35 PM 39.2 °F 35.9 °F 32.0 °F 75% 29.75 in 10.0 mi SSW 4.6 mph - N/A   Clear
6:55 PM 37.4 °F 33.8 °F 32.0 °F 81% 29.75 in 10.0 mi SSW 4.6 mph - N/A   Clear
7:15 PM 37.4 °F 33.8 °F 32.0 °F 81% 29.75 in 10.0 mi SW 4.6 mph - N/A   Clear
7:35 PM 37.4 °F 32.8 °F 32.0 °F 81% 29.75 in 10.0 mi SW 5.8 mph - N/A   Clear
7:55 PM 39.2 °F 34.2 °F 32.0 °F 75% 29.75 in 10.0 mi SW 6.9 mph - N/A   Clear
8:15 PM 37.4 °F 32.8 °F 32.0 °F 81% 29.75 in 10.0 mi WSW 5.8 mph - N/A   Clear
8:35 PM 37.4 °F 33.8 °F 32.0 °F 81% 29.76 in 10.0 mi WSW 4.6 mph - N/A   Clear
8:55 PM 37.4 °F 33.8 °F 32.0 °F 81% 29.76 in 10.0 mi WSW 4.6 mph - N/A   Clear
9:15 PM 37.4 °F 32.8 °F 32.0 °F 81% 29.77 in 10.0 mi WSW 5.8 mph - N/A   Clear
9:35 PM 37.4 °F 31.4 °F 32.0 °F 81% 29.77 in 10.0 mi West 8.1 mph - N/A   Clear
9:55 PM 35.6 °F 29.9 °F 30.2 °F 81% 29.77 in 10.0 mi West 6.9 mph - N/A   Clear
10:35 PM 35.6 °F 31.7 °F 30.2 °F 81% 29.78 in 10.0 mi WSW 4.6 mph - N/A   Scattered Clouds
10:55 PM 33.8 °F - 30.2 °F 87% 29.78 in 10.0 mi Calm Calm - N/A   Clear
11:15 PM 32.0 °F 27.5 °F 30.2 °F 93% 29.78 in 10.0 mi SSW 4.6 mph - N/A   Clear
11:35 PM 33.8 °F 29.6 °F 30.2 °F 87% 29.78 in 10.0 mi WSW 4.6 mph - N/A   Clear
11:55 PM 32.0 °F 28.7 °F 28.4 °F 87% 29.77 in 10.0 mi West 3.5 mph - N/A   Clear